Погода в Отынии

Украина / Ивано-Франковская область     48°44′00″N   24°51′23″E
темп.,
°C
ветер,
м/с
пор.,
м/с
влажн.,
%
обл.,
%
осадки,
мм/ч
давл.,
гПа
погр.,
м
10 августа, ср
ср1000:00+14с1196100 0.3 102528
03:00+14зсз1195100 0.3 102423
06:00+13зсз119699 0.4 102440
09:00+14зсз239495 0.6 1025175
12:00+14сз2292100 0.5 1024245
15:00+16з238399 0.6 1024299
18:00+20зюз225496 0.3 1022716
21:00+16зсз126797 0.3 102216
11 августа, чт
чт1100:00+14сз237472 0.0 102245
03:00+11з228943 0.0 102224
06:00+10зсз239493 0.0 102254
09:00+14сз347552 0.0 1022339
12:00+20с335521 0.5 10201243
15:00+20сз346290 2.3 1019781
18:00+18с247264 0.7 1019105
21:00+15зсз118347 0.8 102011
12 августа, пт
пт1200:00+13зюз22900 0.0 102012
03:00+11з22930 0.0 102116
06:00+11зсз11940 0.0 102111
09:00+16сз22780 0.0 1021276
12:00+23с22455 0.0 1019972
15:00+28св12355 0.0 10171775
18:00+24св4654100 0.0 1017541
21:00+17в3109658 1.8 1019286
13 августа, сб
сб1300:00+16св1196100 0.2 101811
03:00+15з009597 0.2 101811
06:00+15з1196100 0.0 101711
09:00+18с118667 0.0 1017226
12:00+24св225691 0.0 10151146
15:00+28ссв3342100 0.0 10132103
18:00+26ссв345196 0.1 10131007
21:00+20с248165 0.8 101362
14 августа, вс
вс1400:00+17зсз3496100 3.1 101377
03:00+16зсз2598100 3.5 1012138
06:00+16сз489894 0.0 1012275
09:00+17зсз359799 1.8 1012303
12:00+19сз4490100 1.0 1012576
15:00+21ссз4479100 2.1 1011694
18:00+22сз227297 0.2 1011725
21:00+18зсз249593 2.9 101170